x

9063085 - Toledo, Oh (thro1) Weather Station

1:54pm - Wed 26th Nov 2014 All times are CST. -6 hours from GMT.

  • Wind
    2mph, 6mph gusts
  • Air Temp 32°f
  • Sea Pressure 1018.6mb
  • 9063085 - Toledo, Oh
  • 9063085 - Toledo, Oh

More Historic Weather Station data

Upgrade to MSW Pro to gain access to the past 30 days of data for over 8000 Wavebouys and Weather Stations around the globe.

Join Pro

Comparision Forecast

View Surf forecast
   
Wed 11/26 1:54pm 2 6 mph 1018.6mb 32f
1:48pm 2 7 mph 1018.7mb 32f
1:42pm 3 6 mph 1018.8mb 32f
1:36pm 3 6 mph 1018.7mb 32f
1:30pm 3 7 mph 1018.7mb 32f
1:24pm 3 6 mph 1018.6mb 32f
1:18pm 2 6 mph 1018.7mb 32f
1:12pm 3 6 mph 1018.9mb 32f
1:06pm 2 7 mph 1019.2mb 32f
1:00pm 5 7 mph 1019.2mb 32f
12:54pm 5 7 mph 1019.2mb 32f
12:48pm 3 5 mph 1019.3mb 32f
12:42pm 2 7 mph 1019.3mb 31f
12:36pm 3 6 mph 1019.3mb 32f
12:30pm 2 6 mph 1019.4mb 32f
12:24pm 3 6 mph 1019.5mb 32f
12:18pm 2 7 mph 1019.4mb 32f
12:12pm 5 6 mph 1019.5mb 31f
12:06pm 3 8 mph 1019.5mb 31f
12:00pm 3 6 mph 1019.6mb 32f
11:54am 3 6 mph 1019.6mb 31f
11:48am 5 8 mph 1019.5mb 31f
11:42am 3 5 mph 1019.6mb 31f
11:36am 2 6 mph 1019.7mb 32f
11:30am 5 6 mph 1019.8mb 32f
11:24am 2 5 mph 1019.9mb 32f
11:18am 3 6 mph 1019.9mb 31f
11:12am 2 6 mph 1020mb 32f
11:06am 2 6 mph 1020.1mb 31f
11:00am 1 3 mph 1020.2mb 31f
10:54am 3 5 mph 1020.3mb 31f
10:48am 3 5 mph 1020.4mb -
10:42am 3 5 mph 1020.5mb 31f
10:36am 2 3 mph 1020.5mb 31f
10:30am 2 5 mph 1020.6mb 31f
10:24am 3 6 mph 1020.7mb 31f
10:18am 3 5 mph 1020.8mb 32f
10:12am 2 6 mph 1020.9mb 31f
10:06am  -  6 mph 1021mb 31f
10:00am 3 6 mph 1021mb 31f
9:54am 2 5 mph 1021mb 31f
9:48am 3 5 mph 1021.1mb 31f
9:42am 1 5 mph 1021.1mb 31f
9:36am 2 3 mph 1021.1mb 31f
9:30am  -  2 mph 1021.2mb 31f
9:24am  -  1 mph 1021.2mb 31f
9:18am  -  3 mph 1021.2mb 31f
9:12am 3 5 mph 1021.2mb 31f
9:06am 3 5 mph 1021.2mb 31f
9:00am 5 6 mph 1021.3mb 31f
8:54am 6 7 mph 1021.3mb 31f
8:48am 6 7 mph 1021.2mb 31f
8:42am 6 7 mph 1021.2mb 31f
8:36am 6 7 mph 1021.2mb 31f
8:30am 7 8 mph 1021.2mb 31f
8:24am 6 8 mph 1021.3mb 31f
8:18am 7 8 mph 1021.4mb 30f
8:12am 7 11 mph 1021.4mb 31f
8:06am 7 9 mph 1021.5mb 31f
8:00am 7 9 mph 1021.6mb 30f
7:54am 7 11 mph 1021.6mb 31f
7:48am 9 11 mph 1021.6mb 31f
7:42am 8 11 mph 1021.4mb 31f
7:36am 9 11 mph 1021.4mb 30f
7:30am 6 9 mph 1021.4mb 30f
7:24am 1 7 mph 1021.5mb 30f
7:18am 6 7 mph 1021.4mb 29f
7:12am 3 6 mph 1021.3mb 29f
7:06am 6 8 mph 1021.2mb 29f
7:00am 3 6 mph 1021.4mb 29f
6:54am 3 6 mph 1021.4mb 29f
6:48am 3 6 mph 1021.3mb 29f
6:42am 3 6 mph 1021.3mb 29f
6:36am 3 5 mph 1021.3mb 29f
6:30am 5 8 mph 1021.4mb 29f
6:24am 5 6 mph 1021.4mb 29f
6:18am 5 6 mph 1021.4mb 29f
6:12am 5 6 mph 1021.5mb 29f
6:06am 5 6 mph 1021.4mb 29f
6:00am 5 6 mph 1021.4mb 29f
5:54am 1 6 mph 1021.4mb 29f
5:48am 5 7 mph 1021.4mb 28f
5:42am 6 9 mph 1021.2mb 28f
5:36am 3 6 mph 1021.2mb 28f
5:30am 5 6 mph 1021.3mb 28f
5:24am 3 7 mph 1021.4mb 28f
5:18am 2 6 mph 1021.5mb 28f
5:12am 5 7 mph 1021.3mb 28f
5:06am 3 6 mph 1021.3mb 28f
5:00am 3 8 mph 1021.4mb 28f
4:54am 6 8 mph 1021.4mb 28f
4:48am 5 6 mph 1021.4mb 28f
4:42am 3 5 mph 1021.4mb 28f
4:36am 1 5 mph 1021.4mb 29f
4:30am 3 6 mph 1021.4mb 28f
4:24am  -  3 mph 1021.5mb 29f
4:18am 2 3 mph 1021.6mb 29f
4:12am  -  2 mph 1021.9mb 29f
4:06am  -  2 mph 1022mb 29f
4:00am 1 3 mph 1022.1mb 29f
3:54am 2 5 mph 1022.2mb 29f
3:48am 3 6 mph 1022.1mb 29f
3:42am 3 7 mph 1021.9mb 29f
3:36am 1 2 mph 1021.9mb 29f
3:30am 1 2 mph 1022mb 29f
3:24am 1 5 mph 1021.9mb 29f
3:18am 2 3 mph 1022mb 29f
3:12am 2
mph
1022mb 29f
3:06am  -  2 mph 1022.1mb 29f
3:00am 1 5 mph 1022.1mb 29f
2:54am 3 5 mph 1022.1mb 29f
2:48am 1 2 mph 1022.1mb 29f
2:42am  -  3 mph 1022.1mb 29f
2:36am 2 6 mph 1022.2mb 29f
2:30am 5 6 mph 1022.3mb 29f
2:24am 3 6 mph 1022.4mb 29f
2:18am 1 3 mph 1022.4mb 29f
2:12am 1 2 mph 1022.3mb 28f
2:06am  -  3 mph 1022.3mb 29f
2:00am  -  3 mph 1022.3mb 28f
1:54am 1 3 mph 1022.2mb 28f
1:48am 2 3 mph 1022.2mb 29f
1:42am 1 2 mph 1022.1mb 29f
1:36am 2 5 mph 1022mb 28f
1:30am 3 5 mph 1022mb 28f
1:24am 5 6 mph 1022mb 28f
1:18am 3 6 mph 1021.9mb 28f
1:12am 3 5 mph 1021.8mb 28f
1:06am 3 6 mph 1021.9mb 28f
12:54am 3 6 mph 1021.8mb 28f
12:48am 3 6 mph 1022mb 28f
12:42am 5 7 mph 1022mb 28f
12:36am 5 6 mph 1022.3mb 28f
12:30am 5 7 mph 1022.1mb 28f
12:24am 5 8 mph 1022.3mb 28f
12:18am 7 8 mph 1022.3mb 28f
12:12am 5 7 mph 1022.5mb 28f
12:06am 6
mph
1022.5mb 29f
12:00am 5 7 mph 1022.5mb 28f
Tue 11/25 11:54pm 5 7 mph 1022.6mb 28f
11:48pm 6 7 mph 1022.5mb 28f
11:42pm 5 6 mph 1022.8mb 29f
11:36pm 3 6 mph 1022.6mb 29f
11:30pm 3 5 mph 1022.7mb 29f
11:24pm 3 5 mph 1022.9mb 29f
11:18pm  -  3 mph 1023mb 29f
11:12pm 2 3 mph 1023mb 29f
11:06pm 2 3 mph 1023mb 29f
11:00pm 2 7 mph 1023.1mb 29f
10:54pm 1 3 mph 1023.2mb 29f
10:48pm 1 3 mph 1023.1mb 29f
10:42pm 1 3 mph 1023mb 29f
10:36pm 2 5 mph 1023mb 29f
10:30pm  -  2 mph 1022.8mb 29f
10:24pm 2 5 mph 1022.8mb 29f
10:18pm 3 6 mph 1022.9mb 29f
10:12pm 3 6 mph 1022.9mb 29f
10:06pm 5 7 mph 1023.1mb 29f
10:00pm 3 6 mph 1023.1mb 29f
9:54pm 5 7 mph 1023.1mb 29f
9:48pm 2 7 mph 1023.2mb 29f
9:42pm 6 9 mph 1023.3mb 29f
9:36pm 6 8 mph 1023.2mb 29f
9:30pm 6 7 mph 1023.2mb 29f
9:24pm 3 5 mph 1023.3mb 29f
9:18pm 2 5 mph 1023.1mb 29f
9:12pm 1 6 mph 1023.2mb 29f
9:06pm 5 8 mph 1023.1mb 29f
9:00pm 6 7 mph 1023.2mb 29f
8:54pm 6 7 mph 1023.1mb 29f
8:48pm 6 9 mph 1023.1mb 29f
8:42pm 3 8 mph 1023.2mb 29f
8:36pm 3 6 mph 1023.2mb 29f
8:30pm 5 6 mph 1023.1mb 29f
8:24pm 2 7 mph 1023mb 29f
8:18pm 7 9 mph 1023.1mb 29f
8:12pm 5 7 mph 1023.1mb 29f
8:06pm 5 7 mph 1023mb 29f
8:00pm 6 7 mph 1022.9mb 29f
7:54pm 5 7 mph 1023mb 29f
7:48pm 6 7 mph 1023mb 29f
7:42pm 3 8 mph 1022.9mb 29f
7:36pm 6 7 mph 1022.7mb 29f
7:30pm 6 8 mph 1022.7mb 29f
7:24pm 5 6 mph 1022.7mb 29f
7:18pm 3 7 mph 1022.8mb 29f
7:12pm 3 7 mph 1022.7mb 29f
7:06pm 6 8 mph 1022.5mb 29f
7:00pm 5 8 mph 1022.4mb 29f
6:54pm 7 9 mph 1022.4mb 29f
6:48pm 7 11 mph 1022.3mb 29f
6:42pm 8 11 mph 1022.2mb 29f
6:36pm 7 14 mph 1021.9mb 29f
6:30pm 9 14 mph 1021.8mb 29f
6:24pm 7 14 mph 1021.8mb 29f
6:18pm 7 11 mph 1021.9mb 29f
6:12pm 6 11 mph 1021.7mb 30f
6:06pm 8 13 mph 1021.8mb 29f
6:00pm 10 16 mph 1021.6mb 30f
5:54pm 8 10 mph 1021.6mb 30f
5:48pm 8 14 mph 1021.3mb 30f
5:42pm 8 13 mph 1021.3mb 30f
5:36pm 9 14 mph 1021.1mb 30f
5:30pm 8 13 mph 1021mb 30f
5:24pm 8 13 mph 1021mb 30f
5:18pm 8 14 mph 1021mb 30f
5:12pm 9 13 mph 1020.9mb 30f
5:06pm 8 14 mph 1021mb 30f
5:00pm 10 14 mph 1021mb 30f
4:54pm 14 16 mph 1021.1mb 30f
4:48pm 7 10 mph 1021mb 30f
4:42pm 8 11 mph 1020.9mb 30f
4:36pm 10 14 mph 1020.7mb 30f
4:30pm 7 10 mph 1020.7mb 30f
4:24pm 8 14 mph 1020.6mb 30f
4:18pm 10 16 mph 1020.5mb 30f
4:12pm 10 14 mph 1020.4mb 30f
4:06pm 13 15 mph 1020.3mb 30f
4:00pm 10 15 mph 1020.2mb 30f
3:54pm 8 13 mph 1020.1mb 31f
3:48pm 11 16 mph 1020mb 31f
3:42pm 11 16 mph 1020mb 31f
3:36pm 13 15 mph 1020mb 31f
3:30pm 11 15 mph 1020mb 31f
3:24pm 9 16 mph 1020.1mb 31f
3:18pm 8 13 mph 1020mb 31f
3:12pm 13 15 mph 1020mb 31f
3:06pm 10 16 mph 1019.9mb 31f
3:00pm 9 15 mph 1019.8mb 31f
2:54pm 10 16 mph 1019.6mb 32f
2:48pm 11 20 mph 1019.4mb 31f
2:42pm 11 15 mph 1019.3mb 31f
2:36pm 10 15 mph 1019.2mb 32f
2:30pm 10 16 mph 1019.2mb 32f
2:24pm 10 15 mph 1019.2mb 32f
2:18pm 13 17 mph 1019.2mb 32f
2:12pm 11 16 mph 1019.1mb 32f
2:06pm 13 17 mph 1019mb 32f
2:00pm 9 16 mph 1018.8mb 32f
1:54pm 14 18 mph 1018.7mb 32f
1:48pm 13 22 mph 1018.5mb 31f
1:42pm 10 15 mph 1018.4mb 32f
1:36pm 9 16 mph 1018.3mb 32f
1:30pm 14 17 mph 1018.3mb 32f
1:24pm 14 21 mph 1018.1mb 32f
1:18pm 14 22 mph 1017.9mb 32f
1:12pm 14 18 mph 1017.9mb 32f
1:06pm 14 20 mph 1017.8mb 32f
12:54pm 14 20 mph 1017.7mb 32f
12:48pm 15 21 mph 1017.6mb 31f
12:42pm 13 17 mph 1017.6mb 31f
12:36pm 13 22 mph 1017.6mb 32f
12:30pm 20 24 mph 1017.5mb 31f
12:24pm 15 21 mph 1017.4mb 31f
12:18pm 14 24 mph 1017.4mb 31f
12:12pm 15 22 mph 1017.3mb 31f
12:06pm 17 22 mph 1017.3mb 31f
12:00pm 18 25 mph 1017.3mb 31f
11:54am 15 25 mph 1017.3mb 31f
11:48am 16 22 mph 1017.3mb 31f
11:42am 17 26 mph 1017.2mb 31f
11:36am 16 22 mph 1017.2mb 31f
11:30am 14 20 mph 1017.2mb 32f
11:24am 10 20 mph 1017.3mb 32f
11:18am 14 22 mph 1017.2mb 32f
11:12am 11 23 mph 1017.1mb 32f
11:06am 15 22 mph 1017mb 32f
11:00am 17 25 mph 1016.9mb 32f
10:54am 15 24 mph 1016.7mb 32f
10:48am 15 22 mph 1016.6mb 32f
10:42am 16 23 mph 1016.5mb 32f
10:36am 14 21 mph 1016.4mb 32f
10:30am 20 25 mph 1016.3mb 32f
10:24am 15 24 mph 1016.5mb 32f
10:18am 13 18 mph 1016.4mb 33f
10:12am 11 18 mph 1016.4mb 33f
10:06am 13 21 mph 1016.3mb 32f
10:00am 17 23 mph 1016.4mb 32f
9:54am 11 20 mph 1016.1mb 33f
9:48am 16 24 mph 1016.1mb 33f
9:42am 15 23 mph 1016mb 33f
9:36am 17 24 mph 1016mb 33f
9:30am 14 22 mph 1015.8mb 33f
9:24am 14 26 mph 1015.6mb 33f
9:18am 13 22 mph 1015.4mb 34f
9:12am 14 20 mph 1015.3mb 34f
9:06am 10 22 mph 1015.1mb 34f
9:00am 15 22 mph 1015.1mb 33f
8:54am 16 30 mph 1015mb 33f
8:48am 21 29 mph 1014.8mb 33f
8:42am 14 20 mph 1014.7mb 33f
8:36am 17 26 mph 1014.6mb 33f
8:30am 16 26 mph 1014.5mb 33f
8:24am 22 30 mph 1014.4mb 33f
8:18am 10 22 mph - -
8:12am 20 24 mph - -
8:06am 14 23 mph - -
7:54am 14 21 mph 1014mb 33f
7:48am 15 24 mph 1013.9mb 33f
7:42am 18 23 mph 1013.9mb 33f
7:36am 20 28 mph 1013.7mb 33f
7:30am 9 24 mph 1013.7mb 33f
7:24am 15 24 mph 1013.5mb 33f
7:18am 15 22 mph 1013.5mb 33f
7:12am 13 23 mph 1013.5mb 33f
7:06am 14 25 mph 1013.5mb 33f
7:00am 18 25 mph 1013.4mb 33f
6:54am 15 25 mph 1013.3mb 33f
6:48am 21 26 mph 1013.2mb 33f
6:42am 16 21 mph 1013.1mb 33f
6:36am 16 20 mph 1013.2mb 33f
6:30am 16 28 mph 1013.1mb 33f
6:24am 13 23 mph 1013.2mb 33f
6:18am 20 26 mph 1013mb 33f
6:12am 17 26 mph 1013mb 33f
6:06am 16 21 mph 1012.9mb 34f
6:00am 16 29 mph 1012.7mb 34f
5:54am 16 28 mph 1012.6mb 34f
5:48am 13 23 mph 1012.4mb 34f
5:42am 16 28 mph 1012.4mb 34f
5:36am 16 25 mph 1012.2mb 34f
5:30am 14 26 mph 1012.1mb 34f
5:24am 22 26 mph 1012mb 34f
5:18am 16 25 mph 1012mb 34f
5:12am 11 18 mph 1011.9mb 34f
5:06am 15 24 mph 1011.9mb 34f
5:00am 13 25 mph 1011.9mb 34f
4:54am 14 22 mph 1011.9mb 34f
4:48am 13 21 mph 1011.9mb 34f
4:42am 18 24 mph 1011.7mb 34f
4:36am 13 20 mph 1011.7mb 34f
4:30am 9 17 mph 1011.6mb 33f
4:24am 16 21 mph 1011.5mb 33f
4:18am 10 24 mph 1011.4mb 34f
4:12am 17 26 mph 1011.3mb 33f
4:06am 15 24 mph 1011.3mb 33f
4:00am 20 28 mph 1011.1mb 33f
3:54am 17 26 mph 1011mb 33f
3:48am 13 23 mph 1010.9mb 33f
3:42am 14 32 mph 1011mb 34f
3:36am 17 26 mph 1010.9mb 34f
3:30am 16 26 mph 1010.8mb 34f
3:24am 18 25 mph 1010.7mb 34f
3:18am 10 16 mph 1010.6mb 34f
3:12am 14 23 mph 1010.6mb 34f
3:06am 16 25 mph 1010.5mb 34f
3:00am 16 25 mph 1010.4mb 34f
2:54am 16 25 mph 1010.4mb 34f
2:48am 11 22 mph 1010.3mb 35f
2:42am 16 24 mph 1010.3mb 34f
2:36am 18 30 mph 1010.2mb 35f
2:30am 13 32 mph 1010.2mb 35f
2:24am 21 30 mph 1010.2mb 35f
2:18am 18 26 mph 1010.1mb 35f
2:12am 16 28 mph 1010.1mb 35f
2:06am 16 22 mph 1010mb 35f
2:00am 15 29 mph 1010mb 35f
1:54am 18 28 mph 1009.8mb 35f
1:48am 15 24 mph 1009.8mb 35f
1:42am 14 31 mph 1009.8mb 35f
1:36am 21 33 mph 1009.7mb 35f
1:30am 23 33 mph 1009.6mb 35f
1:24am 17 24 mph 1009.5mb 35f
1:18am 18 26 mph 1009.5mb 35f
1:12am 16 23 mph 1009.5mb 35f
1:06am 16 28 mph 1009.3mb 35f
1:00am 15 32 mph 1009.2mb 35f
12:54am 22 29 mph 1009.1mb 35f
12:48am 14 23 mph 1008.9mb 35f
12:42am 14 23 mph 1008.8mb 35f
12:36am 16 24 mph 1008.7mb 35f
12:30am 17 24 mph 1008.6mb 35f
12:24am 16 31 mph 1008.5mb 35f
12:18am 20 34 mph 1008.5mb 35f
12:12am 26 37 mph 1008.4mb 35f
12:06am 23 34 mph 1008.2mb 35f
12:00am 22 37 mph 1008mb 35f
Mon 11/24 11:54pm 21 34 mph 1008.1mb 36f
11:48pm 21 30 mph 1008.1mb 36f
11:42pm 18 36 mph 1008.1mb 36f
11:36pm 21 30 mph 1008.1mb 36f
11:30pm 14 28 mph 1008mb 36f
11:24pm 16 33 mph 1007.9mb 36f
11:18pm 18 31 mph 1007.9mb 36f
11:12pm 15 33 mph 1008mb 36f
11:06pm 22 29 mph 1007.9mb 36f
11:00pm 15 23 mph 1007.8mb 36f
10:54pm 18 33 mph 1007.8mb 36f
10:48pm 21 28 mph 1007.8mb 36f
10:42pm 22 31 mph 1007.8mb 36f
10:36pm 15 36 mph 1007.6mb 36f
10:30pm 14 25 mph 1007.6mb 36f
10:24pm 14 25 mph 1007.5mb 36f
10:18pm 21 30 mph 1007.4mb 36f
10:12pm 13 28 mph 1007.3mb 36f
10:06pm 18 37 mph 1007.3mb 36f
10:00pm 21 34 mph 1007.2mb 36f
9:54pm 22 33 mph 1007.1mb 36f
9:48pm 23 30 mph 1006.9mb 37f
9:42pm 22 37 mph 1006.9mb 36f
9:36pm 21 36 mph 1006.9mb 36f
9:30pm 22 34 mph 1006.9mb 36f
9:24pm 20 33 mph 1006.8mb 37f
9:18pm 26 39 mph 1006.6mb 37f
9:12pm 21 33 mph 1006.6mb 37f
9:06pm 22 30 mph 1006.5mb 37f
9:00pm 21 31 mph 1006.3mb 37f
8:54pm 24 36 mph 1006.2mb 37f
8:48pm 26 37 mph 1006.1mb 37f
8:42pm 20 32 mph 1006mb 37f
8:36pm 23 37 mph 1005.9mb 37f
8:30pm 24 36 mph 1005.7mb 37f
8:24pm 24 40 mph 1005.6mb 37f
8:18pm 23 34 mph 1005.6mb 37f
8:12pm 16 39 mph 1005.5mb 37f
8:06pm 30 38 mph 1005.3mb 37f
8:00pm 22 34 mph 1005.2mb 37f
7:54pm 18 36 mph 1005mb 37f
7:48pm 22 33 mph 1005mb 37f
7:42pm 22 33 mph 1004.9mb 37f
7:36pm 24 33 mph 1004.9mb 37f
7:30pm 18 40 mph 1004.7mb 37f
7:24pm 24 36 mph 1004.5mb 37f
7:18pm 31 44 mph 1004.3mb 38f
7:12pm 28 40 mph 1004.3mb 38f
7:06pm 26 43 mph 1004.2mb 38f
7:00pm 18 37 mph 1004.2mb 38f
6:54pm 22 40 mph 1004.2mb 38f
6:48pm 29 45 mph 1004mb 38f
6:42pm 24 44 mph 1004mb 38f
6:36pm 23 45 mph 1003.9mb 38f
6:30pm 18 41 mph 1003.6mb 38f
6:24pm 23 39 mph 1003.6mb 39f
6:18pm 16 36 mph 1003.5mb 39f
6:12pm 18 32 mph 1003.2mb 39f
6:06pm 30 48 mph 1003.2mb 39f
6:00pm 22 36 mph 1003.1mb 39f
5:54pm 25 40 mph 1002.9mb 39f
5:48pm 24 41 mph 1002.9mb 39f
5:42pm 23 38 mph 1002.9mb 39f
5:36pm 26 43 mph 1002.9mb 39f
5:30pm 25 39 mph 1002.7mb 38f
5:24pm 24 36 mph 1002.7mb 38f
5:18pm 25 38 mph 1002.5mb 38f
5:12pm 23 36 mph 1002.4mb 38f
5:06pm 25 40 mph 1002.2mb 38f
4:54pm 25 40 mph 1001.8mb 38f
4:48pm 23 34 mph 1001.7mb 39f
4:42pm 20 34 mph 1001.6mb 39f
4:36pm 23 40 mph 1001.3mb 39f
4:30pm 18 29 mph 1001.3mb 39f
4:24pm 18 33 mph 1001.2mb 39f
4:18pm 22 33 mph 1001mb 40f
4:12pm 17 31 mph 1000.7mb 40f
4:06pm 21 36 mph 1000.4mb 40f
4:00pm 20 28 mph 1000.3mb 41f
3:54pm 13 33 mph 1000.2mb 41f
3:48pm 25 36 mph 1000.1mb 41f
3:42pm 30 39 mph 1000mb 41f
3:36pm 24 36 mph 999.9mb 41f
3:30pm 28 38 mph 999.9mb 41f
3:24pm 21 37 mph 999.9mb 41f
3:18pm 15 38 mph 999.8mb 41f
3:12pm 21 34 mph 999.7mb 41f
3:06pm 18 32 mph 999.5mb 41f
3:00pm 23 32 mph 999.2mb 41f
2:54pm 20 40 mph 999mb 41f
2:48pm 21 40 mph 998.7mb 41f
2:42pm 25 34 mph 998.4mb 41f
2:36pm 24 39 mph 998.2mb 41f
2:30pm 18 33 mph 998.1mb 41f
2:24pm 24 39 mph 997.8mb 41f
2:18pm 28 43 mph 997.4mb 41f
2:12pm 21 39 mph 997.1mb 42f
2:06pm 23 44 mph 996.8mb 42f
2:00pm 21 36 mph 996.6mb 42f
1:54pm 20 34 mph 996.4mb 42f
1:48pm 29 39 mph 996.1mb 42f
1:42pm 22 39 mph 995.9mb 42f
1:36pm 30 43 mph 995.6mb 42f
1:30pm 34 52 mph 995.2mb 42f
1:24pm 32 51 mph 995.1mb 42f
1:18pm 26 38 mph 994.9mb 43f
1:12pm 28 41 mph 994.7mb 43f
1:06pm 29 45 mph 994.3mb 44f
1:00pm 22 47 mph 993.9mb 44f
12:54pm 23 43 mph 993.7mb 44f
12:48pm 22 37 mph 993.5mb 45f
12:42pm 29 51 mph 993.2mb 45f
12:36pm 28 45 mph 993mb 45f
12:30pm 29 47 mph 992.8mb 45f
12:24pm 25 38 mph 992.5mb 46f
12:18pm 22 45 mph 992.4mb 47f
12:12pm 31 40 mph 992mb 47f
12:06pm 28 45 mph 991.6mb 48f
12:00pm 29 48 mph 991.4mb 48f
11:54am 29 56 mph 991.1mb 49f
11:48am 31 53 mph 990.6mb 50f
11:42am 36 49 mph 990.2mb 51f
11:36am 23 46 mph 989.8mb 54f
11:30am 29 45 mph 989.2mb 55f
11:24am 22 44 mph 989mb 56f
11:18am 34 59 mph 988.7mb 57f
11:12am 21 36 mph 988.2mb 58f
11:06am 18 33 mph 988.2mb 57f
11:00am 18 31 mph 988mb 57f
10:54am 18 31 mph 988.1mb 58f
10:48am 24 33 mph 988mb 58f
10:42am 15 26 mph 988mb 58f
10:36am 15 32 mph 987.9mb 58f
10:30am 21 30 mph 988mb 57f
10:24am 16 28 mph 988.1mb 57f
10:18am 20 31 mph 988.1mb 57f
10:12am 16 29 mph 988.2mb 56f
10:06am 17 33 mph 988.1mb 57f
10:00am 18 31 mph 988mb 57f
9:54am 22 34 mph 987.8mb 57f
9:48am 17 30 mph 987.8mb 56f
9:42am 20 31 mph 987.7mb 56f
9:36am 21 32 mph 987.7mb 55f
9:30am 20 29 mph 987.7mb 55f
9:24am 21 34 mph 987.6mb 54f
9:18am 23 38 mph 987.5mb 55f
9:12am 21 36 mph 987.6mb 54f
9:06am 23 37 mph 987.5mb 54f
9:00am 20 32 mph 987.5mb 54f
8:54am 24 33 mph 987.4mb 54f
8:48am 22 32 mph 987.5mb 55f
8:42am 22 36 mph 987.5mb 55f
8:36am 24 38 mph 987.5mb 56f
8:30am 25 39 mph 987.5mb 57f
8:24am 23 34 mph 987.5mb 57f
8:18am 17 26 mph 987.5mb 57f
8:12am 6 15 mph 987.6mb 56f
8:06am 8 14 mph 987.7mb 56f
7:54am 13 26 mph 987.7mb 55f
7:48am 17 23 mph 987.4mb 55f
7:42am 13 18 mph 987.8mb 54f
7:36am 8 18 mph 987.7mb 53f
7:30am 9 17 mph 987.8mb 54f
7:24am 13 24 mph 987.8mb 54f
7:18am 20 26 mph 987.8mb 54f
7:12am 15 32 mph 988mb 54f
7:06am 21 33 mph 988.2mb 53f
7:00am 13 26 mph 988.3mb 52f
6:54am 16 34 mph 988.6mb 52f
6:48am 23 33 mph 988.7mb 55f
6:42am 11 17 mph 988.3mb 56f
6:36am 15 21 mph 987.7mb 56f
6:30am 14 22 mph 988mb 56f
6:24am 15 22 mph 988mb 56f
6:18am 15 25 mph 988.1mb 56f
6:12am 17 24 mph 988.1mb 56f
6:06am 15 22 mph 988.1mb 56f
6:00am 17 25 mph 988.1mb 56f
5:54am 17 23 mph 988.1mb 56f
5:48am 21 25 mph 988.1mb 56f
5:42am 17 22 mph 988.1mb 56f
5:36am 16 29 mph 988mb 56f
5:30am 14 22 mph 987.9mb 56f
5:24am 14 22 mph 987.8mb 56f
5:18am 14 26 mph 987.7mb 56f
5:12am 14 26 mph 987.8mb 56f
5:06am 21 28 mph 987.9mb 56f
5:00am 22 31 mph 987.9mb 56f
4:54am 15 25 mph 987.9mb 56f
4:48am 14 22 mph 988mb 55f
4:42am 11 22 mph 987.9mb 55f
4:36am 15 29 mph 987.9mb 55f
4:30am 15 22 mph 987.8mb 56f
4:24am 16 28 mph 987.8mb 55f
4:18am 16 25 mph 987.8mb 55f
4:12am 20 29 mph 987.7mb 56f
4:06am 15 28 mph 987.6mb 56f
4:00am 16 25 mph 987.6mb 56f
3:54am 14 29 mph 987.6mb 56f
3:48am 16 24 mph 987.4mb 56f
3:42am 15 26 mph 987.3mb 56f
3:36am 16 29 mph 987.3mb 56f
3:30am 18 33 mph 987mb 56f
3:24am 20 29 mph 987mb 57f
3:18am 17 29 mph 986.9mb 56f
3:12am 17 28 mph 986.8mb 56f
3:06am 16 25 mph 986.6mb 56f
3:00am 17 28 mph 986.4mb 56f
2:54am 16 32 mph 986.2mb 56f
2:48am 17 29 mph 986mb 56f
2:42am 22 34 mph 986mb 56f
2:36am 21 31 mph 985.9mb 55f
2:30am 22 32 mph 985.8mb 55f
2:24am 22 30 mph 985.7mb 55f
2:18am 20 29 mph 985.6mb 55f
2:12am 21 30 mph 985.6mb 55f
2:06am 20 29 mph 985.5mb 55f
2:00am 24 30 mph 985.5mb 55f
1:54am 22 32 mph 985.5mb 55f
1:48am 16 28 mph 985.6mb 55f
1:42am 21 29 mph 985.6mb 55f
1:36am 22 29 mph 985.6mb 55f
1:30am 21 34 mph 985.7mb 55f
1:24am 23 30 mph 985.7mb 55f
1:18am 21 33 mph 985.8mb 56f
1:12am 21 33 mph 985.9mb 56f
1:06am 20 30 mph 985.8mb 56f
1:00am 21 29 mph 985.9mb 56f
12:54am 23 31 mph 986.1mb 56f
12:48am 21 30 mph 986.2mb 55f
12:42am 23 31 mph 986.3mb 55f
12:36am 23 29 mph 986.4mb 56f
12:30am 25 32 mph 986.5mb 55f
12:24am 22 29 mph 986.7mb 55f
12:18am 23 30 mph 986.8mb 56f
12:12am 20 29 mph 987mb 56f
12:06am 18 30 mph 987.2mb 56f
12:00am 24 31 mph 987.4mb 56f
Sun 11/23 11:54pm 22 34 mph 987.5mb 56f
11:48pm 25 37 mph 987.7mb 56f
11:42pm 24 33 mph 987.9mb 55f
11:36pm 21 37 mph 988mb 56f
11:30pm 23 30 mph 988.1mb 56f
11:24pm 25 31 mph 988.4mb 55f
11:18pm 25 34 mph 988.6mb 55f
11:12pm 22 32 mph 988.8mb 55f
11:06pm 22 28 mph 988.9mb 54f
11:00pm 20 25 mph 989.2mb 54f
10:54pm 22 28 mph 989.4mb 54f
10:48pm 22 28 mph 989.5mb 53f
10:42pm 20 31 mph 989.7mb 54f
10:36pm 20 24 mph 989.8mb 54f
10:30pm 17 25 mph 989.9mb 53f
10:24pm 17 22 mph 990.1mb 53f
10:18pm 16 25 mph 990.3mb 53f
10:12pm 15 22 mph 990.6mb 53f
10:06pm 16 23 mph 990.8mb 53f
10:00pm 16 25 mph 991mb 53f
9:54pm 14 21 mph 991.1mb 53f
9:48pm 15 22 mph 991.4mb 53f
9:42pm 13 22 mph 991.6mb 52f
9:36pm 14 21 mph 991.9mb 52f
9:30pm 15 20 mph 992.2mb 53f
9:24pm 14 20 mph 992.5mb 52f
9:18pm 14 22 mph 992.8mb 52f
9:12pm 17 22 mph 993.2mb 52f
9:06pm 15 23 mph 993.5mb 52f
9:00pm 15 25 mph 993.9mb 52f
8:54pm 16 21 mph 994.2mb 52f
8:48pm 17 21 mph 994.4mb 52f
8:42pm 15 21 mph 994.8mb 52f
8:36pm 16 24 mph 995mb 51f
8:30pm 16 21 mph 995.2mb 52f
8:24pm 16 23 mph 995.3mb 51f
8:18pm 9 18 mph 995.6mb 51f
8:12pm 16 22 mph 995.9mb 51f
8:06pm 16 25 mph 996.4mb 51f
8:00pm 16 23 mph 996.5mb 51f
7:54pm 16 22 mph 996.8mb 51f
7:48pm 15 22 mph 997.1mb 51f
7:42pm 13 21 mph 997.3mb 51f
7:36pm 9 20 mph 997.4mb 51f
7:30pm 14 18 mph 997.5mb 51f
7:24pm 14 17 mph 997.6mb 51f
7:18pm 16 21 mph 997.9mb 51f
7:12pm 15 20 mph 998.1mb 51f
7:06pm 14 18 mph 998.3mb 51f
7:00pm 14 18 mph 998.4mb 51f
6:54pm 13 20 mph 998.6mb 51f
6:48pm 14 17 mph 998.8mb 51f
6:42pm 14 18 mph 999mb 52f
6:36pm 14 22 mph 999.3mb 52f
6:30pm 15 18 mph 999.5mb 52f
6:24pm 13 20 mph 999.8mb 52f
6:18pm 14 21 mph 999.9mb 52f
6:12pm 14 17 mph 1000mb 52f
6:06pm 11 17 mph 1000.1mb 52f
6:00pm 13 16 mph 1000.3mb 52f
5:54pm 11 15 mph 1000.4mb 52f
5:48pm 11 15 mph 1000.6mb 53f
5:42pm 9 14 mph 1000.8mb 52f
5:36pm 10 14 mph 1000.8mb 53f
5:30pm 10 15 mph 1000.9mb 53f
5:24pm 11 15 mph 1001mb 53f
5:18pm 13 17 mph 1001.1mb 53f
5:12pm 11 16 mph 1001.3mb 53f
5:06pm 13 20 mph 1001.6mb 53f
4:54pm 9 13 mph 1002mb 46f
4:48pm 10 14 mph 1002.3mb 47f
4:42pm 10 16 mph 1002.6mb 52f
4:36pm 7 14 mph 1002.9mb 47f
4:30pm 6 8 mph 1003.1mb 48f
4:24pm 7 9 mph 1003.2mb 44f
4:18pm 6 10 mph 1003.1mb 44f
4:12pm 8 10 mph 1003.2mb 46f
4:06pm 7 9 mph 1003.4mb 46f
4:00pm 6 9 mph 1003.5mb 44f
3:54pm 8 10 mph 1003.6mb 44f
3:48pm 7 8 mph 1003.7mb 46f
3:42pm 9 11 mph 1003.8mb 49f
3:36pm 8 11 mph 1003.8mb 51f
3:30pm 8 11 mph 1003.9mb 53f
3:24pm 11 14 mph 1004.2mb 56f
3:18pm 8 11 mph 1004.3mb 54f
3:12pm 8 10 mph 1004.5mb 55f
3:06pm 8 14 mph 1004.7mb 56f
3:00pm 10 22 mph 1004.8mb 56f
2:54pm 14 18 mph 1005mb 56f
2:48pm 14 17 mph 1005.3mb 56f
2:42pm 11 15 mph 1005.4mb 57f
2:36pm 10 17 mph 1005.5mb 56f
2:30pm 15 17 mph 1005.5mb 57f
2:24pm 14 17 mph 1005.7mb 57f
2:18pm 10 14 mph 1005.9mb 57f
2:12pm 13 16 mph 1006mb 57f
2:06pm 13 15 mph 1006.1mb 57f
2:00pm 14 15 mph 1006.2mb 57f
1:54pm 11 14 mph 1006.2mb 57f
1:48pm 13 16 mph 1006.4mb 57f
1:42pm 11 16 mph 1006.5mb 56f
1:36pm 14 18 mph 1006.7mb 56f
1:30pm 11 16 mph 1006.9mb 57f
1:24pm 13 17 mph 1007.2mb 56f
1:18pm 11 16 mph 1007.4mb 56f
1:12pm 14 16 mph 1007.3mb 57f
1:06pm 13 15 mph 1007.4mb 56f
1:00pm 8 11 mph 1007.7mb 56f
12:54pm 9 11 mph 1007.8mb 55f
12:48pm 10 14 mph 1008mb 55f
12:42pm 10 15 mph 1008.3mb 55f
12:36pm 11 14 mph 1008.5mb 55f
12:30pm 9 16 mph 1008.6mb 54f
12:24pm 10 14 mph 1008.8mb 55f
12:18pm 10 14 mph 1009mb 54f
12:12pm 9 11 mph 1009.2mb 54f
12:06pm 10 11 mph 1009.3mb 53f
12:00pm 9 13 mph 1009.7mb 53f
11:54am 9 11 mph 1009.9mb 53f
11:48am 10 13 mph 1009.9mb 53f
11:42am 9 14 mph 1010.2mb 52f
11:36am 9 14 mph 1010.4mb 52f
11:30am 8 14 mph 1010.6mb 52f
11:24am 10 16 mph 1010.8mb 52f
11:18am 11 14 mph 1010.9mb 51f
11:12am 10 15 mph 1011mb 51f
11:06am 13 16 mph 1011.2mb 51f
11:00am 13 17 mph 1011.4mb 51f
10:54am 11 15 mph 1011.5mb 51f
10:48am 9 15 mph 1011.5mb 50f
10:42am 7 10 mph 1011.6mb 50f
10:36am 8 11 mph 1011.6mb 50f
10:30am 10 14 mph 1011.8mb 50f
10:24am 9 13 mph 1011.8mb 49f
10:18am 9 14 mph 1012mb 49f
10:12am 11 14 mph 1012.3mb 49f
10:06am 9 13 mph 1012.4mb 49f
10:00am 9 13 mph 1012.6mb 49f
9:54am 10 14 mph 1012.9mb 48f
9:48am 10 15 mph 1013.1mb 48f
9:42am 10 17 mph 1013.2mb 48f
9:36am 11 14 mph 1013.3mb 47f
9:30am 10 14 mph 1013.2mb 47f
9:24am 10 14 mph 1013.4mb 47f
9:18am 9 14 mph 1013.4mb 47f
9:12am 10 14 mph 1013.4mb 47f
9:06am 9 11 mph 1013.5mb 46f
9:00am 9 13 mph 1013.3mb 46f
8:54am 9 14 mph 1013.3mb 46f
8:48am 9 11 mph 1013.5mb 45f
8:42am 8 10 mph 1013.9mb 45f
8:36am 9 11 mph 1014.2mb 45f
8:30am 9 11 mph 1014.1mb 45f
8:24am 8 11 mph 1014.3mb 44f
8:18am 9 14 mph 1014.3mb 44f
8:12am 10 14 mph 1014.2mb 45f
8:06am 9 14 mph 1014.1mb 45f
8:00am 9 11 mph 1014mb 45f
7:54am 10 13 mph 1014mb 45f
7:48am 10 13 mph 1014.1mb 45f
7:42am 9 13 mph 1014.2mb 44f
7:36am 10 14 mph 1014.1mb 44f
7:30am 10 13 mph 1014.1mb 44f
7:24am 9 13 mph 1013.9mb 44f
7:18am 10 14 mph 1014mb 44f
7:12am 8 11 mph 1014mb 44f
7:06am 8 13 mph 1014mb 44f
7:00am 10 13 mph 1014mb 45f
6:54am 10 13 mph 1014.1mb 44f
6:48am 9 11 mph 1014.2mb 44f
6:42am 9 11 mph 1014.1mb 44f
6:36am 7 10 mph 1013.9mb 44f
6:30am 9 13 mph 1014mb 44f
6:24am 9 11 mph 1014mb 44f
6:18am 9 11 mph 1014mb 44f
6:12am 9 10 mph 1013.9mb 44f
6:06am 8 10 mph 1014mb 44f
6:00am 8 11 mph 1014.1mb 44f
5:54am 8 13 mph 1014.1mb 44f
5:48am 8 13 mph 1014.2mb 44f
5:42am 7 11 mph 1014.3mb 44f
5:36am 9 15 mph 1014.4mb 45f
5:30am 8 11 mph 1014.4mb 45f
5:24am 9 13 mph 1014.4mb 45f
5:18am 8 13 mph 1014.4mb 44f
5:12am 8 14 mph 1014.5mb 45f
5:06am 9 14 mph 1014.4mb 45f
5:00am 9 13 mph 1014.4mb 45f
4:54am 8 11 mph 1014.3mb 44f
4:48am 9 14 mph 1014.3mb 45f
4:42am 11 13 mph 1014.4mb 44f
4:36am 8 13 mph 1014.4mb 45f
4:30am 8 13 mph 1014.4mb 45f
4:24am 10 15 mph 1014.5mb 45f
4:18am 14 18 mph 1014.5mb 45f
4:12am 14 17 mph 1014.6mb 45f
4:06am 11 15 mph 1014.6mb 45f
4:00am 9 13 mph 1014.6mb 45f
3:54am 10 14 mph 1014.6mb 45f
3:48am 9 14 mph 1014.6mb 45f
3:42am 9 14 mph 1014.6mb 45f
3:36am 8 13 mph 1014.6mb 45f
3:30am 8 13 mph 1014.6mb 45f
3:24am 8 14 mph 1014.6mb 45f
3:18am 8 13 mph 1014.7mb 46f
3:12am 7 14 mph 1014.8mb 46f
3:06am 9 16 mph 1014.9mb 46f
3:00am 8 15 mph 1014.8mb 46f
2:54am 7 13 mph 1014.8mb 46f
2:48am 9 16 mph 1014.9mb 47f
2:42am 7 17 mph 1015mb 47f
2:36am 10 17 mph 1015mb 48f
2:30am 13 16 mph 1015.1mb 48f
2:24am 10 15 mph 1015.1mb 48f
2:18am 8 14 mph 1015.1mb 49f
2:12am 9 14 mph 1015.1mb 49f
2:06am 9 14 mph 1015.1mb 49f
2:00am 9 14 mph 1015.1mb 49f
1:54am 9 14 mph 1015.1mb 49f
1:48am 9 14 mph 1015mb 49f
1:42am 10 14 mph 1014.9mb 49f
1:36am 8 13 mph 1015mb 49f
1:30am 7 13 mph 1014.9mb 49f
1:24am 7 14 mph 1014.9mb 49f
1:18am 9 13 mph 1014.8mb 49f
1:12am 7 15 mph 1014.7mb 49f
1:06am 9 15 mph 1014.7mb 48f
1:00am 10 15 mph 1014.7mb 49f
12:54am 10 15 mph 1014.7mb 48f
12:48am 9 14 mph 1014.7mb 48f
12:42am 10 15 mph 1014.7mb 48f
12:36am 10 14 mph 1014.7mb 48f
12:30am 10 13 mph 1014.6mb 48f
12:24am 6 13 mph 1014.8mb 49f
12:18am 7 11 mph 1014.8mb 49f
12:12am 8 14 mph 1014.9mb 49f
12:06am 8 15 mph 1015mb 48f
12:00am 8 14 mph 1015mb 48f
Sat 11/22 11:54pm 8 14 mph 1014.9mb 48f
11:48pm 9 13 mph 1015mb 48f
11:42pm 8 11 mph 1015mb 48f
11:36pm 7 13 mph 1015mb 48f
11:30pm 9 13 mph 1015mb 48f
11:24pm 9 13 mph 1014.9mb 48f
11:18pm 8 11 mph 1014.9mb 48f
11:12pm 9 13 mph 1015mb 48f
11:06pm 10 15 mph 1015mb 48f
11:00pm 10 14 mph 1014.8mb 48f
10:54pm 11 14 mph 1014.8mb 48f
10:48pm 8 14 mph 1014.8mb 48f
10:42pm 10 14 mph 1014.9mb 48f
10:36pm 10 15 mph 1014.9mb 48f
10:30pm 8 11 mph 1014.9mb 48f
10:24pm 8 13 mph 1014.9mb 48f
10:18pm 9 14 mph 1014.9mb 48f
10:12pm 7 10 mph 1014.9mb 48f
10:06pm 7 10 mph 1014.9mb 49f
10:00pm 7 14 mph 1014.9mb 49f
9:54pm 8 15 mph 1014.9mb 49f
9:48pm 9 15 mph 1014.9mb 49f
9:42pm 8 14 mph 1014.9mb 49f
9:36pm 10 16 mph 1014.8mb 49f
9:30pm 14 17 mph 1014.7mb 48f
9:24pm 13 17 mph 1014.6mb 48f
9:18pm 11 16 mph 1014.6mb 48f
9:12pm 9 14 mph 1014.7mb 48f
9:06pm 11 16 mph 1014.6mb 48f
9:00pm 13 16 mph 1014.6mb 47f